Regional Weather Roundup
Issued by NWS

Home | Current Version | Previous Version | Graphics & Text | Print | Product List | Glossary On
Versions: 1 2 3 4 5 6 7 8 9 10 11 12 13 14 15 16 17 18 19 20 21 22 23 24 25 26 27 28 29 30 31 32 33 34 35 36 37 38 39 40 41 42 43 44 45 46 47 48 49 50
000
ASUS43 KDTX 230201
RWRMI
MICHIGAN HOURLY REGIONAL WEATHER ROUNDUP
NATIONAL WEATHER SERVICE DETROIT/PONTIAC MI
900 PM EST THU FEB 22 2018

NOTE: "FAIR" INDICATES FEW OR NO CLOUDS BELOW 12,000 FEET WITH NO
SIGNIFICANT WEATHER AND/OR OBSTRUCTION TO VISIBILITY.

MIZ047>049-052>055-059>063-066>070-074>076-081>083-230300-
SOUTHEAST LOWER MICHIGAN

CITY           SKY/WX    TMP DP  RH WIND       PRES   REMARKS
ADRIAN         CLOUDY    33  28  81 E13       30.49F WCI  24
ALMA           CLOUDY    30  27  88 NE10      30.54S WCI  21
ANN ARBOR      CLOUDY    36  26  67 NE9       30.49F WCI  29
BAD AXE        MOCLDY    29  24  83 NE5       30.57F WCI  24
CARO           CLOUDY    29  24  80 E8        30.54F WCI  21
DETROIT CITY   CLOUDY    33  26  75 NE10      30.53F WCI  25
DETROIT        CLOUDY    37  28  70 E12       30.51F WCI  29
FLINT          FAIR      31  25  78 E15       30.50F WCI  20
GROSSE ILE     CLOUDY    34  31  88 NE7       30.50F WCI  28
HILLSDALE      CLOUDY    34  30  86 E16G24    30.45R WCI  23
HOWELL         FAIR      34  26  74 E12       30.47F WCI  25

CITY           SKY/WX    TMP DP  RH WIND       PRES   REMARKS
JACKSON        CLOUDY    37  27  67 E8        30.48R WCI  31
LAMBERTVILLE   CLOUDY    33  30  86 E9G18     30.48F WCI  26
LANSING        FAIR      33  25  72 E10       30.49F WCI  25
LAPEER         FAIR      30  26  83 NE6       30.54F WCI  24
MASON          MOCLDY    36  25  64 E7        30.47F WCI  30
MONROE         CLOUDY    34  29  81 E6        30.50S WCI  29
MT. CLEMENS    PTCLDY    31  30  96 NE7       30.52F WCI  24
PONTIAC        FAIR      31  25  78 NE9       30.49F WCI  23
PORT HOPE        N/A     32  26  78 E15       30.57F WCI  22
PORT HURON     CLOUDY    30  27  86 NE7       30.56S WCI  23
TRI CITIES     CLOUDY    29  24  82 NE13      30.56F WCI  19
MIDLAND        MOCLDY    29  24  80 NE12      30.56F WCI  20
TROY           FAIR      33  26  73 NE10      30.54F WCI  25
SAGINAW HB     MOCLDY    30  27  86 NE12      30.55F WCI  21
$$
MIZ043>046-050>051-056>058-064>065-071>073-077>080-230300-
SOUTHWEST LOWER MICHIGAN

CITY           SKY/WX    TMP DP  RH WIND       PRES   REMARKS
BATTLE CREEK   CLOUDY    38  27  64 E8        30.46R WCI  32
BENTON HARBOR  CLOUDY    40  31  70 E12G21    30.42F WCI  33
BIG RAPIDS     CLOUDY    31  22  69 E12G17    30.48F WCI  22
COLDWATER      CLOUDY    37  34  89 E12G20    30.46R WCI  29
FREMONT        CLOUDY    33  18  55 E9G17     30.46F WCI  25
HOLLAND        CLOUDY    37  26  64 E13       30.44F WCI  29
GRAND RAPIDS   MOCLDY    33  26  75 E15       30.46F WCI  23
IONIA          FAIR      32  27  81 NE12      30.48S WCI  23
KALAMAZOO      CLOUDY    40  28  62 E8G15     30.45S WCI  34
LUDINGTON      CLOUDY    34  24  67 E12       30.46F WCI  25
MARSHALL       CLOUDY    37  27  66 E6        30.47R WCI  32
MOUNT PLEASANT CLOUDY    30  22  71 E8        30.54S WCI  23
MUSKEGON       CLOUDY    36  24  62 E15       30.45F WCI  27
SOUTH HAVEN    CLOUDY    39  28  65 E8        30.44R WCI  33
$$
MIZ016>042-230300-
NORTHERN LOWER MICHIGAN

CITY           SKY/WX    TMP DP  RH WIND       PRES   REMARKS
ALPENA         CLOUDY    27  21  78 E5        30.61F WCI  22
BEAVER ISLAND  MOCLDY    29  23  77 E8        30.56S WCI  21
BELLAIRE       CLOUDY    32  24  72 E3        30.54F
CADILLAC       CLOUDY    30  21  69 E9        30.46F WCI  22
CHARLEVOIX     CLOUDY    32  23  70 E8        30.56F WCI  24
FRANKFORT      CLOUDY    35  24  63 E3        30.48F
GAYLORD        CLOUDY    27  21  78 SE7       30.52F WCI  19
GRAYLING       CLOUDY    29  20  69 E8        30.51F WCI  21
HARBOR SPRINGS CLOUDY    29  19  67 E8        30.55F WCI  21
HOUGHTON LAKE  CLOUDY    30  19  63 E8        30.53F WCI  22
MANISTEE       CLOUDY    34  22  61 E8        30.48F WCI  27
OSCODA         CLOUDY    28  20  71 NE7       30.59F WCI  21
PELLSTON       CLOUDY    28  20  71 E9        30.57F WCI  19
ROGERS CITY    CLOUDY    26  18  70 SE6       30.61F WCI  20
TRAVERSE CITY  CLOUDY    34  22  61 E7        30.50F WCI  28
$$
MIZ007>008-015-230300-
EASTERN UPPER MICHIGAN

CITY           SKY/WX    TMP DP  RH WIND       PRES   REMARKS
KINROSS        FAIR      23  17  78 E8        30.57F WCI  14
MACKINAC ISLAN CLOUDY    26  18  71 SE10G16   30.56F WCI  17
NEWBERRY       FAIR      24  18  79 SE8       30.54F WCI  15
S. S. MARIE    FAIR      25  16  68 E5        30.57F WCI  19
MUNISING         N/A     27  19  72 S7        30.52F WCI  19
$$
MIZ004>006-011>014-085-230300-
CENTRAL UPPER MICHIGAN

CITY           SKY/WX    TMP DP  RH WIND       PRES   REMARKS
MANISTIQUE     FAIR      26  24  92 E8        30.54F WCI  17
ESCANABA       MOCLDY    26  22  84 E6        30.53F WCI  19
MENOMINEE      CLOUDY    28  25  88 NE8       30.51F WCI  20
SAWYER-GWINN   CLEAR     25  12  58 S6        30.48F WCI  18
$$
MIZ001>003-009>011-084-230300-
WESTERN UPPER MICHIGAN

CITY           SKY/WX    TMP DP  RH WIND       PRES   REMARKS
IRON MOUNTAIN  CLOUDY    26  16  65 SE8       30.47S WCI  18
HOUGHTON       FAIR      26  14  60 SE6       30.43F WCI  19
COPPER HARBOR    N/A     29  21  72 SW13G25   30.44F WCI  19
IRONWOOD       CLOUDY    30  12  47 VRB3      30.40F
$$

ABBREVIATIONS USED IN REMARKS
   TC - TEMPERATURE IN CELSIUS
  WCI - WIND CHILL INDEX
   HX - HEAT INDEX
  VSB - VISIBILITY





USA.gov is the U.S. government's official web portal to all federal, state and local government web resources and services.